Regional Weather Roundup
Issued by NWS

Home | Current Version | Previous Version | Graphics & Text | Print | Product List | Glossary On
Versions: 1 2 3 4 5 6 7 8 9 10 11 12 13 14 15 16 17 18 19 20 21 22 23 24 25 26 27 28 29 30 31 32 33 34 35 36 37 38 39 40 41 42 43 44 45 46 47 48 49 50
000
ASUS45 KCYS 051010
RWRWY

WYOMING REGIONAL WEATHER ROUNDUP
NATIONAL WEATHER SERVICE CHEYENNE WY
300 AM MST THU MAR 05 2015

NOTE:  "FAIR" INDICATES FEW OR NO CLOUDS BELOW 12,000 FEET
WITH NO SIGNIFICANT WEATHER AND/OR OBSTRUCTIONS TO VISIBILITY.

WYZ001-051100-
YELLOWSTONE NATIONAL PARK

CITY           SKY/WX    TMP DP  RH WIND       PRES   REMARKS
LK YELLOWSTONE   N/A     -8 -12  83 CALM      30.21S
W YELLOWSTONE  NOT AVBL

$$
WYZ002>013-054>058-071-098>099-051100-
NORTHERN WYOMING

CITY           SKY/WX    TMP DP  RH WIND       PRES   REMARKS
JACKSON        FAIR      -2  -6  84 N9        30.27S WCI -18
CODY           FAIR      19   3  49 NW8G18    30.07S WCI   9
GREYBULL       FAIR       8   4  83 CALM      30.18S
WORLAND        FAIR       8   2  76 S6        30.16F WCI  -2
SHERIDAN       FAIR       4  -5  66 CALM      30.07F
BUFFALO        FAIR      19  -5  34 S10       30.04F WCI   7
GILLETTE         N/A     18   1  47 SW14      30.06F WCI   4
HULETT         FAIR      10   1  67 W10       30.08F WCI  -3
NEWCASTLE      FAIR       1  -4  78 CALM      30.15F

$$
WYZ014>020-022>026-101>103-051100-
CENTRAL WYOMING

CITY           SKY/WX    TMP DP  RH WIND       PRES   REMARKS
BIG PINEY      FAIR       8  -1  66 NW3       30.22S
PINEDALE       FAIR       7  -2  66 NW15      30.20S WCI -11
DUBOIS         FAIR      14   3  62 NW15G23   30.13R WCI  -1
LANDER         FAIR       3  -2  79 CALM      30.11F
RIVERTON       FAIR      -3  -8  79 MISG      30.13F
CASPER         FAIR      13   4  67 SW14      30.12S WCI  -2
DOUGLAS        FAIR     -11 -17  75 CALM      30.14F

$$
WYZ021-027>030-104>119-051100-
SOUTHERN WYOMING

CITY           SKY/WX    TMP DP  RH WIND       PRES   REMARKS
EVANSTON       FAIR      12   6  77 SW10      30.27S WCI  -1
FORT BRIDGER   FAIR      18   6  60 SW12      30.28F WCI   6
ROCK SPRINGS   FAIR      16   6  65 W15       30.20F WCI   1
DIXON          FAIR       6   0  77 SE5       30.30S WCI  -3
RAWLINS        FAIR      15   6  67 VRB5      30.16F WCI   8
SARATOGA       FAIR       5   0  78 SE9       30.21S WCI  -9
LARAMIE        FAIR      12   1  61 SW17      30.10S WCI  -5
CHEYENNE       FAIR      18   1  47 W10       30.10F WCI   6
TORRINGTON     FAIR       2  -3  80 NE6       30.17F WCI  -9
PINE BLUFFS    FAIR       5   1  85 MISG      30.16F

$$


USA.gov is the U.S. government's official web portal to all federal, state and local government web resources and services.